K0WOI Weather Reports


Display with metric or nautical units.
time (UTC)temp
F
wind
direction
speed
MPH
gust
MPH
rain 1hr
in
rain 24hr
in
rain mn
in
humidity
%
barometer
mb
20260906170627 85 110 0.0 0.0 0.00 0.00 0.00 82 1016.4
20260906170126 84 109 0.0 0.0 0.00 0.00 0.00 83 1016.5
20260906165622 84 108 0.0 0.0 0.00 0.00 0.00 83 1016.6
20260906165117 84 109 0.0 0.0 0.00 0.00 0.00 84 1016.4
20260906164616 84 109 0.0 0.0 0.00 0.00 0.00 84 1016.2
20260906164112 84 108 0.0 0.0 0.00 0.00 0.00 83 1016.6
20260906163607 84 110 0.0 0.0 0.00 0.00 0.00 84 1016.5
20260906163103 83 108 0.0 0.0 0.00 0.00 0.00 85 1016.4
20260906162600 82 115 0.0 0.0 0.00 0.00 0.00 86 1016.3
20260906162055 82 109 0.0 0.0 0.00 0.00 0.00 87 1016.4
20260906161550 82 110 0.0 0.0 0.00 0.00 0.00 87 1016.0
20260906161049 83 109 0.0 0.0 0.00 0.00 0.00 86 1016.2
20260906160548 82 110 0.0 0.0 0.00 0.00 0.00 87 1016.2
20260906160047 82 109 0.0 0.0 0.00 0.00 0.00 87 1016.2
20260906155544 81 108 0.0 0.0 0.00 0.00 0.00 89 1016.5
20260906155040 80 112 0.0 0.0 0.00 0.00 0.00 89 1016.6
20260906154536 80 110 0.0 0.0 0.00 0.00 0.00 91 1016.7
20260906154034 79 111 0.0 0.0 0.00 0.00 0.00 90 1016.7
20260906153533 79 108 0.0 0.0 0.00 0.00 0.00 92 1016.9
20260906153029 79 108 0.0 0.0 0.00 0.00 0.00 92 1017.0
20260906152523 78 108 0.0 0.0 0.00 0.00 0.00 93 1016.9
20260906152022 77 109 0.0 0.0 0.00 0.00 0.00 94 1016.8
20260906151518 77 108 0.0 0.0 0.00 0.00 0.00 94 1016.6
20260906151013 77 108 0.0 0.0 0.00 0.00 0.00 95 1016.6
20260906150509 76 108 0.0 0.0 0.00 0.00 0.00 95 1016.7
20260906150008 76 108 0.0 0.0 0.00 0.00 0.00 96 1016.8
20260906145507 76 108 0.0 0.0 0.00 0.00 0.00 96 1016.9
20260906145003 75 108 0.0 0.0 0.00 0.00 0.00 96 1017.0
20260906144456 75 108 0.0 0.0 0.00 0.00 0.00 97 1016.8
20260906143952 75 109 0.0 0.0 0.00 0.00 0.00 97 1017.1
20260906143447 75 107 0.0 0.0 0.00 0.00 0.00 97 1016.9
20260906142943 75 110 0.0 0.0 0.00 0.00 0.00 97 1017.0
20260906142436 75 108 0.0 0.0 0.00 0.00 0.00 98 1016.9
20260906141932 75 107 0.0 0.0 0.00 0.00 0.00 98 1017.2
20260906141426 75 107 0.0 0.0 0.00 0.00 0.00 99 1017.0
20260906140920 74 107 0.0 0.0 0.00 0.00 0.00 99 1017.0
20260906140414 74 107 0.0 0.0 0.00 0.00 0.00 99 1016.9
20260906135912 74 109 0.0 0.0 0.00 0.00 0.00 99 1017.0
20260906135406 73 107 0.0 0.0 0.00 0.00 0.00 99 1017.0
20260906134902 73 106 0.0 0.0 0.00 0.00 0.00 99 1017.1
20260906134357 73 107 0.0 0.0 0.00 0.00 0.00 99 1017.2
20260906133852 73 108 0.0 0.0 0.00 0.00 0.00 99 1017.2
20260906133348 73 106 0.0 0.0 0.00 0.00 0.00 99 1017.4
20260906132844 73 107 0.0 0.0 0.00 0.00 0.00 99 1017.2
20260906132338 73 107 0.0 0.0 0.00 0.00 0.00 99 1016.9
20260906131834 73 106 0.0 0.0 0.00 0.00 0.00 99 1017.2
20260906131329 73 106 0.0 0.0 0.00 0.00 0.00 99 1016.9
20260906130825 72 106 0.0 0.0 0.00 0.00 0.00 99 1016.9
20260906130325 72 106 0.0 0.0 0.00 0.00 0.00 99 1016.9
20260906125824 73 105 0.0 0.0 0.00 0.00 0.00 99 1016.7
20260906125321 72 105 0.0 0.0 0.00 0.00 0.00 99 1016.9
20260906124816 72 105 0.0 0.0 0.00 0.00 0.00 99 1016.9
20260906124312 72 105 0.0 0.0 0.00 0.00 0.00 99 1016.7
20260906123811 72 105 0.0 0.0 0.00 0.00 0.00 99 1016.6
20260906123306 71 105 0.0 0.0 0.00 0.00 0.00 99 1016.9
20260906122806 71 105 0.0 0.0 0.00 0.00 0.00 99 1016.5
20260906122301 71 105 0.0 0.0 0.00 0.00 0.00 99 1016.5
20260906121758 71 105 0.0 0.0 0.00 0.00 0.00 99 1016.7
20260906121254 71 105 0.0 0.0 0.00 0.00 0.00 99 1016.5
20260906120749 71 106 0.0 0.0 0.00 0.00 0.00 99 1016.5
20260906120246 71 106 0.0 0.0 0.00 0.00 0.00 99 1016.2
20260906115741 71 106 0.0 0.0 0.00 0.00 0.00 99 1016.3
20260906115236 71 106 0.0 0.0 0.00 0.00 0.00 99 1016.0
20260906114735 71 106 0.0 0.0 0.00 0.00 0.00 99 1016.0
20260906114231 71 106 0.0 0.0 0.00 0.00 0.00 99 1016.1
20260906113726 71 106 0.0 0.0 0.00 0.00 0.00 99 1016.1
20260906113224 71 106 0.0 0.0 0.00 0.00 0.00 99 1015.8
20260906112719 71 105 0.0 0.0 0.00 0.00 0.00 99 1016.1
20260906112216 71 105 0.0 0.0 0.00 0.00 0.00 99 1015.8
20260906111715 71 106 0.0 0.0 0.00 0.00 0.00 99 1015.7
20260906111210 71 105 0.0 0.0 0.00 0.00 0.00 99 1015.7
20260906110704 71 105 0.0 0.0 0.00 0.00 0.00 99 1015.8
20260906110200 71 105 0.0 0.0 0.00 0.00 0.00 99 1015.5
20260906105653 71 105 0.0 0.0 0.00 0.00 0.00 99 1015.6
20260906105150 71 105 0.0 0.0 0.00 0.00 0.00 99 1015.7
20260906104649 72 105 0.0 0.0 0.00 0.00 0.00 99 1015.6
20260906104143 72 105 0.0 0.0 0.00 0.00 0.00 99 1015.7
20260906103641 72 105 0.0 0.0 0.00 0.00 0.00 99 1015.8
20260906103137 72 105 0.0 0.0 0.00 0.00 0.00 99 1015.7
20260906102631 72 105 0.0 0.0 0.00 0.00 0.00 99 1015.8
20260906102125 72 105 0.0 0.0 0.00 0.00 0.00 99 1016.2
20260906101620 72 105 0.0 0.0 0.00 0.00 0.00 99 1015.9
20260906101115 72 105 0.0 0.0 0.00 0.00 0.00 99 1016.1
20260906100611 72 105 0.0 0.0 0.00 0.00 0.00 99 1016.0
20260906100111 72 105 0.0 0.0 0.00 0.00 0.00 99 1016.0
20260906095610 72 105 0.0 0.0 0.00 0.00 0.00 99 1015.9
20260906095106 72 105 0.0 0.0 0.00 0.00 0.00 99 1015.9
20260906094605 72 105 0.0 0.0 0.00 0.00 0.00 99 1015.8
20260906094101 72 105 0.0 0.0 0.00 0.00 0.00 99 1015.8
20260906093557 72 105 0.0 0.0 0.00 0.00 0.00 99 1015.5
20260906093051 72 105 0.0 0.0 0.00 0.00 0.00 99 1015.6
20260906092547 72 105 0.0 0.0 0.00 0.00 0.00 99 1015.4
20260906092042 73 105 0.0 0.0 0.00 0.00 0.00 99 1015.6
20260906091537 73 105 0.0 0.0 0.00 0.00 0.00 99 1015.5
20260906091033 73 105 0.0 0.0 0.00 0.00 0.00 99 1015.4
20260906090528 73 105 0.0 0.0 0.00 0.00 0.00 99 1015.4
20260906090023 73 106 0.0 0.0 0.00 0.00 0.00 99 1015.2
20260906085522 73 106 0.0 0.0 0.00 0.00 0.00 99 1015.2
20260906085021 73 106 0.0 0.0 0.00 0.00 0.00 99 1015.3
20260906084516 73 106 0.0 0.0 0.00 0.00 0.00 99 1015.3
20260906084015 73 106 0.0 0.0 0.00 0.00 0.00 99 1015.4
20260906083511 73 106 0.0 0.0 0.00 0.00 0.00 99 1015.2
20260906083010 73 106 0.0 0.0 0.00 0.00 0.00 99 1015.1
20260906082505 74 106 0.0 0.0 0.00 0.00 0.00 99 1015.1
20260906082001 74 106 0.0 0.0 0.00 0.00 0.00 99 1014.9
20260906081456 74 107 0.0 0.0 0.00 0.00 0.00 99 1015.2
20260906080952 74 107 0.0 0.0 0.00 0.00 0.00 99 1015.2
20260906080448 75 107 0.0 0.0 0.00 0.00 0.00 99 1015.1
20260906075943 75 106 0.0 0.0 0.00 0.00 0.00 99 1015.2
20260906075438 75 107 0.0 0.0 0.00 0.00 0.00 99 1015.1
20260906074933 75 106 0.0 0.0 0.00 0.00 0.00 99 1015.0
20260906074433 75 106 0.0 0.0 0.00 0.00 0.00 99 1015.0
20260906073932 75 106 0.0 0.0 0.00 0.00 0.00 99 1015.0
20260906073427 75 107 0.0 0.0 0.00 0.00 0.00 99 1015.2
20260906072923 75 105 0.0 0.0 0.00 0.00 0.00 99 1015.1
20260906072418 75 105 0.0 0.0 0.00 0.00 0.00 99 1015.2
20260906071914 75 105 0.0 0.0 0.00 0.00 0.00 99 1015.2
20260906071409 75 105 0.0 0.0 0.00 0.00 0.00 99 1015.1
20260906070905 75 105 0.0 0.0 0.00 0.00 0.00 99 1015.0
20260906070401 75 105 0.0 0.0 0.00 0.00 0.00 99 1015.0
20260906065857 75 105 0.0 0.0 0.00 0.00 0.00 99 1015.3
20260906065350 75 105 0.0 0.0 0.00 0.00 0.00 99 1015.3
20260906064846 75 105 0.0 0.0 0.00 0.00 0.00 99 1015.3
20260906064343 75 105 0.0 0.0 0.00 0.00 0.00 99 1015.4
20260906063837 75 105 0.0 0.0 0.00 0.00 0.00 99 1015.0
20260906063332 75 105 0.0 0.0 0.00 0.00 0.00 99 1015.2
20260906062827 75 105 0.0 0.0 0.00 0.00 0.00 99 1015.3
20260906062327 75 105 0.0 0.0 0.00 0.00 0.00 99 1015.5
20260906061822 75 105 0.0 0.0 0.00 0.00 0.00 99 1015.1
20260906061319 75 105 0.0 0.0 0.00 0.00 0.00 99 1015.1
20260906060813 75 105 0.0 0.0 0.00 0.00 0.00 99 1015.1
20260906060311 75 105 0.0 0.0 0.00 0.00 0.00 99 1015.2
20260906055807 75 105 0.0 0.0 0.00 0.00 0.00 99 1015.1
20260906055306 75 105 0.0 0.0 0.00 0.00 0.00 99 1015.2
20260906054756 75 105 0.0 0.0 0.00 0.00 0.00 99 1015.4
20260906054252 75 105 0.0 0.0 0.00 0.00 0.00 99 1015.2
20260906053749 75 105 0.0 0.0 0.00 0.00 0.00 99 1015.4
20260906053244 76 105 0.0 0.0 0.00 0.00 0.00 99 1015.3
20260906052739 76 105 0.0 0.0 0.00 0.00 0.00 99 1015.4
20260906052235 76 105 0.0 0.0 0.00 0.00 0.00 99 1014.9
20260906051732 76 105 0.0 0.0 0.00 0.00 0.00 99 1015.3
20260906051231 76 105 0.0 0.0 0.00 0.00 0.00 99 1015.1
20260906050727 76 105 0.0 0.0 0.00 0.00 0.00 99 1015.0
20260906050222 76 105 0.0 0.0 0.00 0.00 0.00 99 1015.2
20260906045721 76 105 0.0 0.0 0.00 0.00 0.00 99 1015.2
20260906045216 76 105 0.0 0.0 0.00 0.00 0.00 99 1015.2
20260906044711 76 105 0.0 0.0 0.00 0.00 0.00 99 1015.1
20260906044206 76 105 0.0 0.0 0.00 0.00 0.00 99 1015.2
20260906043703 76 105 0.0 0.0 0.00 0.00 0.00 99 1015.1
20260906043158 76 105 0.0 0.0 0.00 0.00 0.00 99 1014.9
20260906042657 76 105 0.0 0.0 0.00 0.00 0.00 99 1015.3
20260906042151 76 105 0.0 0.0 0.00 0.00 0.00 99 1015.1
20260906041647 76 105 0.0 0.0 0.00 0.00 0.00 99 1015.2
20260906041142 76 105 0.0 0.0 0.00 0.00 0.00 99 1014.8
20260906040637 76 105 0.0 0.0 0.00 0.00 0.00 99 1014.9
20260906040133 76 105 0.0 0.0 0.00 0.00 0.00 99 1014.9
20260906035628 77 105 0.0 0.0 0.00 0.00 0.00 99 1014.8
20260906035124 76 105 0.0 0.0 0.00 0.00 0.00 99 1014.9
20260906034624 76 105 0.0 0.0 0.00 0.00 0.00 99 1014.5
20260906034118 77 105 0.0 0.0 0.00 0.00 0.00 99 1015.0
20260906033614 77 105 0.0 0.0 0.00 0.00 0.00 99 1014.9
20260906033108 77 105 0.0 0.0 0.00 0.00 0.00 99 1014.9
20260906032606 77 105 0.0 0.0 0.00 0.00 0.00 99 1014.8
20260906032100 77 105 0.0 0.0 0.00 0.00 0.00 99 1014.8
20260906031555 77 105 0.0 0.0 0.00 0.00 0.00 99 1014.9
20260906031051 77 105 0.0 0.0 0.00 0.00 0.00 99 1014.8
20260906030550 77 105 0.0 0.0 0.00 0.00 0.00 99 1014.9
20260906030050 77 105 0.0 0.0 0.00 0.00 0.00 99 1014.8
20260906025550 77 105 0.0 0.0 0.00 0.00 0.00 99 1014.7
20260906025048 78 105 0.0 0.0 0.00 0.00 0.00 99 1014.4
20260906024544 78 105 0.0 0.0 0.00 0.00 0.00 98 1014.2
20260906024043 78 105 0.0 0.0 0.00 0.00 0.00 98 1014.4
20260906023540 78 105 0.0 0.0 0.00 0.00 0.00 98 1014.2
20260906023034 78 105 0.0 0.0 0.00 0.00 0.00 98 1014.3
20260906022530 78 105 0.0 0.0 0.00 0.00 0.00 98 1014.1
20260906022025 78 105 0.0 0.0 0.00 0.00 0.00 98 1014.1
20260906021521 78 105 0.0 0.0 0.00 0.00 0.00 98 1014.2
20260906021014 78 106 0.0 0.0 0.00 0.00 0.00 97 1014.1
20260906020514 79 106 0.0 0.0 0.00 0.00 0.00 97 1013.9
20260906020013 79 105 0.0 0.0 0.00 0.00 0.00 97 1013.8
20260906015512 79 105 0.0 0.0 0.00 0.00 0.00 97 1013.5
20260906015007 79 106 0.0 0.0 0.00 0.00 0.00 96 1013.6
20260906014502 79 105 0.0 0.0 0.00 0.00 0.00 96 1013.6
20260906013957 79 105 0.0 0.0 0.00 0.00 0.00 96 1013.6
20260906013453 80 105 0.0 0.0 0.00 0.00 0.00 96 1013.5
20260906012948 80 106 0.0 0.0 0.00 0.00 0.00 95 1013.5
20260906012443 80 106 0.0 0.0 0.00 0.00 0.00 95 1013.3
20260906011942 80 106 0.0 0.0 0.00 0.00 0.00 95 1013.5
20260906011438 80 105 0.0 0.0 0.00 0.00 0.00 94 1013.6
20260906010933 81 106 0.0 0.0 0.00 0.00 0.00 94 1013.5
20260906010428 81 105 0.0 0.0 0.00 0.00 0.00 94 1013.4
20260906005924 81 105 0.0 0.0 0.00 0.00 0.00 93 1013.4
20260906005424 82 106 0.0 0.0 0.00 0.00 0.00 93 1013.2
20260906004922 82 106 0.0 0.0 0.00 0.00 0.00 92 1013.3
20260906004417 82 106 0.0 0.0 0.00 0.00 0.00 92 1013.2
20260906003913 82 106 0.0 0.0 0.00 0.00 0.00 92 1013.3
20260906003408 83 106 0.0 0.0 0.00 0.00 0.00 91 1013.2
20260906002903 83 106 0.0 0.0 0.00 0.00 0.00 91 1013.5
20260906002403 84 106 0.0 0.0 0.00 0.00 0.00 90 1013.3
20260906001858 84 105 0.0 0.0 0.00 0.00 0.00 89 1013.3
20260906001353 84 105 0.0 0.0 0.00 0.00 0.00 89 1013.0
20260906000848 85 106 0.0 0.0 0.00 0.00 0.00 88 1013.2
20260906000348 85 106 0.0 0.0 0.00 0.00 0.00 87 1013.2
20260905235843 85 106 0.0 0.0 0.00 0.00 0.00 86 1013.0
20260905235337 85 106 0.0 0.0 0.00 0.00 0.00 86 1013.3
20260905234833 86 106 0.0 0.0 0.00 0.00 0.00 85 1013.2
20260905234328 86 106 0.0 0.0 0.00 0.00 0.00 84 1013.1
20260905233823 86 106 0.0 0.0 0.00 0.00 0.00 84 1013.3
20260905233318 87 107 0.0 0.0 0.00 0.00 0.00 83 1013.2
20260905232817 87 106 0.0 0.0 0.00 0.00 0.00 83 1013.3
20260905232313 87 107 0.0 0.0 0.00 0.00 0.00 82 1013.2
20260905231809 88 108 0.0 0.0 0.00 0.00 0.00 82 1013.3
20260905231304 88 108 0.0 0.0 0.00 0.00 0.00 80 1012.9
20260905230800 89 109 0.0 0.0 0.00 0.00 0.00 78 1013.0
20260905230258 89 108 0.0 0.0 0.00 0.00 0.00 79 1013.0
20260905225757 90 108 0.0 0.0 0.00 0.00 0.00 77 1012.9
20260905225253 90 108 0.0 0.0 0.00 0.00 0.00 76 1013.0
20260905224752 90 109 0.0 0.0 0.00 0.00 0.00 76 1012.7
20260905224248 90 107 0.0 0.0 0.00 0.00 0.00 77 1012.9
20260905223743 90 112 0.0 0.0 0.00 0.00 0.00 75 1012.8
20260905223240 90 109 0.0 0.0 0.00 0.00 0.00 78 1012.8
20260905222736 90 108 0.0 0.0 0.00 0.00 0.00 77 1012.9
20260905222234 90 109 0.0 0.0 0.00 0.00 0.00 76 1012.8
20260905221731 91 110 0.0 0.0 0.00 0.00 0.00 74 1012.8
20260905221227 91 108 0.0 0.0 0.00 0.00 0.00 76 1012.8
20260905220723 91 111 0.0 0.0 0.00 0.00 0.00 76 1012.9
20260905220219 91 109 0.0 0.0 0.00 0.00 0.00 76 1013.0
20260905215718 91 110 0.0 0.0 0.00 0.00 0.00 75 1012.8
20260905215214 91 110 0.0 0.0 0.00 0.00 0.00 75 1012.9
20260905214710 92 110 0.0 0.0 0.00 0.00 0.00 75 1012.9
20260905214205 91 109 0.0 0.0 0.00 0.00 0.00 78 1013.0
20260905213700 92 110 0.0 0.0 0.00 0.00 0.00 74 1012.9
20260905213156 92 114 0.0 0.0 0.00 0.00 0.00 73 1012.8
20260905212651 93 111 0.0 0.0 0.00 0.00 0.00 73 1012.9
20260905212150 93 111 0.0 0.0 0.00 0.00 0.00 73 1013.1
20260905211645 91 115 0.0 0.0 0.00 0.00 0.00 74 1013.0
20260905211140 91 111 0.0 0.0 0.00 0.00 0.00 77 1013.2
20260905210637 90 109 0.0 0.0 0.00 0.00 0.00 79 1013.3
20260905210137 90 109 0.0 0.0 0.00 0.00 0.00 76 1013.2
20260905205636 91 109 0.0 0.0 0.00 0.00 0.00 77 1013.3
20260905205130 91 109 0.0 0.0 0.00 0.00 0.00 75 1013.4
20260905204630 92 108 0.0 0.0 0.00 0.00 0.00 76 1013.4
20260905204125 92 112 0.0 0.0 0.00 0.00 0.00 73 1013.2
20260905203625 91 109 0.0 0.0 0.00 0.00 0.00 75 1013.4
20260905203121 91 111 0.0 0.0 0.00 0.00 0.00 77 1013.4
20260905202616 89 110 0.0 0.0 0.00 0.00 0.00 79 1013.2
20260905202111 89 108 0.0 0.0 0.00 0.00 0.00 82 1013.4
20260905201607 89 109 0.0 0.0 0.00 0.00 0.00 82 1013.3
20260905201106 89 108 0.0 0.0 0.00 0.00 0.00 80 1013.3
20260905200602 89 109 0.0 0.0 0.00 0.00 0.00 81 1013.2
20260905200056 90 111 0.0 0.0 0.00 0.00 0.00 78 1013.4
20260905195550 90 109 0.0 0.0 0.00 0.00 0.00 78 1013.4
20260905195046 90 111 0.0 0.0 0.00 0.00 0.00 77 1013.6
20260905194545 91 112 0.0 0.0 0.00 0.00 0.00 76 1013.7
20260905194044 91 109 0.0 0.0 0.00 0.00 0.00 77 1013.7
20260905193540 91 109 0.0 0.0 0.00 0.00 0.00 74 1014.0
20260905193035 91 110 0.0 0.0 0.00 0.00 0.00 75 1014.2
20260905192530 91 110 0.0 0.0 0.00 0.00 0.00 75 1013.9
20260905192027 90 110 0.0 0.0 0.00 0.00 0.00 77 1014.1
20260905191525 89 111 0.0 0.0 0.00 0.00 0.00 79 1013.9
20260905191024 90 109 0.0 0.0 0.00 0.00 0.00 77 1014.2
20260905190522 89 108 0.0 0.0 0.00 0.00 0.00 82 1014.2
20260905190016 88 106 0.0 0.0 0.00 0.00 0.00 80 1014.3
20260905185516 88 108 0.0 0.0 0.00 0.00 0.00 80 1014.5
20260905185015 88 109 0.0 0.0 0.00 0.00 0.00 80 1015.1
20260905184510 89 111 0.0 0.0 0.00 0.00 0.00 79 1015.0
20260905184009 88 110 0.0 0.0 0.00 0.00 0.00 80 1015.2
20260905183508 88 110 0.0 0.0 0.00 0.00 0.00 79 1015.1
20260905183009 89 108 0.0 0.0 0.00 0.00 0.00 79 1015.2
20260905182503 89 112 0.0 0.0 0.00 0.00 0.00 78 1015.3
20260905181958 89 112 0.0 0.0 0.00 0.00 0.00 78 1015.0
20260905181453 88 110 0.0 0.0 0.00 0.00 0.00 77 1015.3
20260905180951 89 107 0.0 0.0 0.00 0.00 0.00 76 1015.5
20260905180446 89 110 0.0 0.0 0.00 0.00 0.00 77 1015.3
20260905175942 89 108 0.0 0.0 0.00 0.00 0.00 77 1015.2
20260905175441 88 107 0.0 0.0 0.00 0.00 0.00 78 1015.2
20260905174937 88 108 0.0 0.0 0.00 0.00 0.00 79 1015.2
20260905174432 88 108 0.0 0.0 0.00 0.00 0.00 79 1015.4
20260905173927 88 106 0.0 0.0 0.00 0.00 0.00 77 1015.2
20260905173424 87 108 0.0 0.0 0.00 0.00 0.00 79 1015.4
20260905172919 87 110 0.0 0.0 0.00 0.00 0.00 81 1015.5
20260905172417 86 111 0.0 0.0 0.00 0.00 0.00 80 1015.4
20260905171913 85 106 0.0 0.0 0.00 0.00 0.00 83 1015.4
20260905171410 85 108 0.0 0.0 0.00 0.00 0.00 83 1015.5
20260905170906 85 108 0.0 0.0 0.00 0.00 0.00 83 1015.8